,,Stat5,,Stat1,,Stat2,,Stat3,,Stat4,,Wind1,,Wind1,
time,status,PA1M_AVG,status,PR1M_SUM,status,RH1M_AVG,status,SR1M_AVG,status,TA1M_AVG,status,W1dAve1m,status,W1sAve1m,
2000-05-03, 00:00:01,VALID,919.234,VALID,0,VALID,97.7457,VALID,-0.0339617,VALID,19.5185,VALID,212,VALID,0.440538,
2000-05-03, 00:01:00,VALID,919.217,VALID,0,VALID,97.6999,VALID,-0.0169808,VALID,19.522,VALID,217,VALID,0.601985,
2000-05-03, 00:02:00,VALID,919.206,VALID,0,VALID,97.7241,VALID,0,VALID,19.5479,VALID,214,VALID,0.907278,
2000-05-03, 00:03:00,VALID,919.201,VALID,0,VALID,97.6007,VALID,-0.0169808,VALID,19.5317,VALID,218,VALID,0.719161,
2000-05-03, 00:04:00,VALID,919.186,VALID,0,VALID,97.4774,VALID,-0.0169808,VALID,19.5188,VALID,212,VALID,0.994727,
2000-05-03, 00:05:00,VALID,919.173,VALID,0,VALID,97.4558,VALID,-0.0339617,VALID,19.4962,VALID,201,VALID,0.856771,
2000-05-03, 00:06:00,VALID,919.167,VALID,0,VALID,97.4647,VALID,-0.0339617,VALID,19.4708,VALID,210,VALID,0.743454,
2000-05-03, 00:07:00,VALID,919.146,VALID,0,VALID,97.6122,VALID,-0.0339617,VALID,19.4544,VALID,201,VALID,1.15461,
2000-05-03, 00:08:00,VALID,919.14,VALID,0,VALID,97.7711,VALID,-0.0509425,VALID,19.4514,VALID,201,VALID,0.882576,
2000-05-03, 00:09:00,VALID,919.121,VALID,0,VALID,97.8347,VALID,-0.0169808,VALID,19.4383,VALID,200,VALID,0.926398,
2000-05-03, 00:10:00,VALID,919.117,VALID,0,VALID,97.9441,VALID,0,VALID,19.4512,VALID,194,VALID,1.07129,
2000-05-03, 00:11:00,VALID,919.097,VALID,0,VALID,97.9848,VALID,-0.0509425,VALID,19.4569,VALID,177,VALID,1.25041,
2000-05-03, 00:12:00,VALID,919.08,VALID,0,VALID,97.8182,VALID,0,VALID,19.4703,VALID,179,VALID,0.944079,
2000-05-03, 00:13:00,VALID,919.061,VALID,0,VALID,97.7927,VALID,0,VALID,19.4766,VALID,174,VALID,0.993627,
2000-05-03, 00:14:00,VALID,919.032,VALID,0,VALID,97.7444,VALID,0,VALID,19.4862,VALID,167,VALID,0.896835,
2000-05-03, 00:15:00,VALID,919.008,VALID,0,VALID,97.6351,VALID,0,VALID,19.4698,VALID,173,VALID,0.798353,
2000-05-03, 00:16:00,VALID,919.002,VALID,0,VALID,97.6986,VALID,0.0169808,VALID,19.4798,VALID,175,VALID,0.879729,
2000-05-03, 00:17:00,VALID,918.982,VALID,0,VALID,97.7292,VALID,-0.0169808,VALID,19.4994,VALID,194,VALID,0.782812,
2000-05-03, 00:18:00,VALID,918.959,VALID,0,VALID,97.5855,VALID,-0.0339617,VALID,19.4897,VALID,202,VALID,0.483073,
2000-05-03, 00:19:00,VALID,918.945,VALID,0,VALID,97.6402,VALID,-0.0339617,VALID,19.493,VALID,217,VALID,0.759079,
2000-05-03, 00:20:00,VALID,918.933,VALID,0,VALID,97.6096,VALID,-0.0339617,VALID,19.493,VALID,222,VALID,0.746505,
2000-05-03, 00:21:00,VALID,918.914,VALID,0,VALID,97.5244,VALID,-0.0509425,VALID,19.5029,VALID,212,VALID,0.899107,
2000-05-03, 00:22:00,VALID,918.907,VALID,0,VALID,97.527,VALID,-0.0509425,VALID,19.4837,VALID,222,VALID,0.776816,
2000-05-03, 00:23:00,VALID,918.886,VALID,0,VALID,97.4698,VALID,-0.0679233,VALID,19.4604,VALID,217,VALID,0.774877,
2000-05-03, 00:24:00,VALID,918.878,VALID,0,VALID,97.5689,VALID,-0.0509425,VALID,19.4708,VALID,220,VALID,0.850893,
2000-05-03, 00:25:00,VALID,918.879,VALID,0,VALID,97.6236,VALID,-0.0339617,VALID,19.448,VALID,203,VALID,0.414063,
2000-05-03, 00:26:00,VALID,918.873,VALID,0,VALID,97.7584,VALID,-0.0339617,VALID,19.4408,VALID,215,VALID,1.04753,
2000-05-03, 00:27:00,VALID,918.863,VALID,0,VALID,97.7648,VALID,-0.0339617,VALID,19.4415,VALID,210,VALID,1.12973,
2000-05-03, 00:28:00,VALID,918.845,VALID,0,VALID,97.8462,VALID,-0.0509425,VALID,19.4487,VALID,216,VALID,1.10876,
2000-05-03, 00:29:00,VALID,918.828,VALID,0,VALID,97.869,VALID,-0.0679233,VALID,19.4482,VALID,217,VALID,1.30279,
2000-05-03, 00:30:00,VALID,918.804,VALID,0,VALID,97.883,VALID,-0.0509425,VALID,19.448,VALID,212,VALID,1.23164,
2000-05-03, 00:31:00,VALID,918.784,VALID,0,VALID,97.8576,VALID,-0.0679233,VALID,19.4445,VALID,215,VALID,1.45593,
2000-05-03, 00:32:00,VALID,918.774,VALID,0,VALID,97.8729,VALID,-0.0679233,VALID,19.4743,VALID,218,VALID,1.28806,
2000-05-03, 00:33:00,VALID,918.744,VALID,0,VALID,97.7991,VALID,-0.0339617,VALID,19.4738,VALID,210,VALID,1.12753,
2000-05-03, 00:34:00,VALID,918.731,VALID,0,VALID,97.6859,VALID,-0.0509425,VALID,19.4835,VALID,206,VALID,0.98137,
2000-05-03, 00:35:00,VALID,918.718,VALID,0,VALID,97.5931,VALID,-0.0169808,VALID,19.4967,VALID,200,VALID,0.950827,
2000-05-03, 00:36:00,VALID,918.712,VALID,0,VALID,97.452,VALID,-0.0849042,VALID,19.5031,VALID,213,VALID,0.821484,
2000-05-03, 00:37:00,VALID,918.699,VALID,0,VALID,97.452,VALID,-0.0339617,VALID,19.5093,VALID,204,VALID,0.970189,
2000-05-03, 00:38:00,VALID,918.668,VALID,0,VALID,97.3604,VALID,-0.0509425,VALID,19.5026,VALID,199,VALID,0.747596,
2000-05-03, 00:39:00,VALID,918.662,VALID,0,VALID,97.3884,VALID,0,VALID,19.4997,VALID,193,VALID,0.71875,
2000-05-03, 00:40:00,VALID,918.648,VALID,0,VALID,97.3083,VALID,-0.0509425,VALID,19.49,VALID,178,VALID,0.716992,
2000-05-03, 00:41:00,VALID,918.622,VALID,0,VALID,97.2002,VALID,-0.0169808,VALID,19.4837,VALID,174,VALID,0.878125,
2000-05-03, 00:42:00,VALID,918.612,VALID,0,VALID,97.129,VALID,-0.0169808,VALID,19.4574,VALID,164,VALID,0.81871,
2000-05-03, 00:43:00,VALID,918.608,VALID,0,VALID,96.9624,VALID,-0.0339617,VALID,19.4318,VALID,163,VALID,0.802015,
2000-05-03, 00:44:00,VALID,918.591,VALID,0,VALID,96.8225,VALID,-0.0679233,VALID,19.3863,VALID,162,VALID,0.739583,
2000-05-03, 00:45:00,VALID,918.584,VALID,0,VALID,96.7971,VALID,-0.0339617,VALID,19.3739,VALID,160,VALID,0.748197,
2000-05-03, 00:46:00,VALID,918.587,VALID,0,VALID,96.8098,VALID,-0.0169808,VALID,19.3737,VALID,156,VALID,0.787584,
2000-05-03, 00:47:00,VALID,918.588,VALID,0,VALID,96.6585,VALID,-0.0509425,VALID,19.3637,VALID,157,VALID,0.75601,
2000-05-03, 00:48:00,VALID,918.578,VALID,0,VALID,96.6483,VALID,-0.0169808,VALID,19.3702,VALID,159,VALID,0.682726,
2000-05-03, 00:49:00,VALID,918.571,VALID,0,VALID,96.7907,VALID,0,VALID,19.367,VALID,170,VALID,0.756293,
2000-05-03, 00:50:00,VALID,918.561,VALID,0,VALID,97.0857,VALID,-0.0339617,VALID,19.3806,VALID,183,VALID,0.901242,
2000-05-03, 00:51:00,VALID,918.554,VALID,0,VALID,97.2383,VALID,-0.0679233,VALID,19.3799,VALID,189,VALID,0.85663,
2000-05-03, 00:52:00,VALID,918.555,VALID,0,VALID,97.2956,VALID,-0.0509425,VALID,19.393,VALID,180,VALID,0.578526,
2000-05-03, 00:53:00,VALID,918.552,VALID,0,VALID,97.3718,VALID,-0.0849042,VALID,19.4072,VALID,178,VALID,0.94778,
2000-05-03, 00:54:01,VALID,918.542,VALID,0,VALID,97.3337,VALID,-0.101885,VALID,19.4069,VALID,159,VALID,0.678354,
2000-05-03, 00:55:00,VALID,918.535,VALID,0,VALID,97.2269,VALID,-0.101885,VALID,19.4072,VALID,171,VALID,0.607572,
2000-05-03, 00:56:00,VALID,918.51,VALID,0,VALID,97.1875,VALID,-0.101885,VALID,19.3938,VALID,173,VALID,0.516258,
2000-05-03, 00:57:00,VALID,918.511,VALID,0,VALID,97.1976,VALID,-0.101885,VALID,19.388,VALID,176,VALID,0.467226,
2000-05-03, 00:58:00,VALID,918.479,VALID,0,VALID,97.2154,VALID,-0.101885,VALID,19.3684,VALID,178,VALID,0.420272,
2000-05-03, 00:59:00,VALID,918.476,VALID,0,VALID,97.1608,VALID,-0.118866,VALID,19.3421,VALID,172,VALID,0.332559,
2000-05-03, 01:00:00,VALID,918.464,VALID,0,VALID,97.1519,VALID,-0.101885,VALID,19.3262,VALID,169,VALID,0.279948,
2000-05-03, 01:01:00,VALID,918.454,VALID,0,VALID,97.0883,VALID,-0.0679233,VALID,19.2969,VALID,169,VALID,0.16887,
2000-05-03, 01:02:00,VALID,918.44,VALID,0,VALID,97.1646,VALID,-0.0849042,VALID,19.2745,VALID,171,VALID,0,
2000-05-03, 01:03:00,VALID,918.421,VALID,0,VALID,97.5206,VALID,-0.101885,VALID,19.2906,VALID,167,VALID,0,
2000-05-03, 01:04:01,VALID,918.405,VALID,0,VALID,97.2943,VALID,-0.0849042,VALID,19.2616,VALID,158,VALID,0,
2000-05-03, 01:05:00,VALID,918.391,VALID,0,VALID,97.1163,VALID,-0.101885,VALID,19.2223,VALID,158,VALID,0,
2000-05-03, 01:06:01,VALID,918.373,VALID,0,VALID,97.1836,VALID,-0.0849042,VALID,19.2163,VALID,158,VALID,0,
2000-05-03, 01:07:00,VALID,918.352,VALID,0,VALID,97.3693,VALID,-0.0679233,VALID,19.2131,VALID,158,VALID,0,
2000-05-03, 01:08:00,VALID,918.317,VALID,0,VALID,97.2688,VALID,-0.0169808,VALID,19.1731,VALID,158,VALID,0,
2000-05-03, 01:09:00,VALID,918.313,VALID,0,VALID,97.2688,VALID,-0.0169808,VALID,19.1438,VALID,158,VALID,0,
2000-05-03, 01:10:00,VALID,918.31,VALID,0,VALID,97.3808,VALID,0.0169808,VALID,19.1403,VALID,158,VALID,0,
2000-05-03, 01:11:01,VALID,918.317,VALID,0,VALID,97.438,VALID,-0.0169808,VALID,19.1311,VALID,158,VALID,0,
2000-05-03, 01:12:01,VALID,918.339,VALID,0,VALID,97.4672,VALID,0,VALID,19.1249,VALID,158,VALID,0,
2000-05-03, 01:13:00,VALID,918.344,VALID,0,VALID,97.4825,VALID,0,VALID,19.1051,VALID,158,VALID,0,
2000-05-03, 01:14:01,VALID,918.355,VALID,0,VALID,97.4977,VALID,0,VALID,19.0859,VALID,158,VALID,0,
2000-05-03, 01:15:01,VALID,918.376,VALID,0,VALID,97.5397,VALID,0,VALID,19.0795,VALID,175,VALID,0,
2000-05-03, 01:16:01,VALID,918.368,VALID,0,VALID,97.3095,VALID,0,VALID,19.031,VALID,172,VALID,0,
2000-05-03, 01:17:01,VALID,918.365,VALID,0,VALID,97.1531,VALID,0,VALID,19.0119,VALID,170,VALID,0,
2000-05-03, 01:18:00,VALID,918.351,VALID,0,VALID,97.1302,VALID,0.0169808,VALID,19.0022,VALID,163,VALID,0,
2000-05-03, 01:19:01,VALID,918.344,VALID,0,VALID,97.232,VALID,0,VALID,18.9915,VALID,161,VALID,0,
2000-05-03, 01:20:00,VALID,918.328,VALID,0,VALID,97.5613,VALID,0,VALID,19.0014,VALID,162,VALID,0,
2000-05-03, 01:21:00,VALID,918.312,VALID,0,VALID,97.6948,VALID,0,VALID,19.0275,VALID,164,VALID,0,
2000-05-03, 01:22:00,VALID,918.311,VALID,0,VALID,97.7635,VALID,-0.0169808,VALID,19.0275,VALID,166,VALID,0.0148026,
2000-05-03, 01:23:01,VALID,918.301,VALID,0,VALID,97.7648,VALID,0.0169808,VALID,19.0471,VALID,167,VALID,0.845806,
2000-05-03, 01:24:00,VALID,918.292,VALID,0,VALID,97.6503,VALID,0,VALID,19.037,VALID,165,VALID,0.803843,
2000-05-03, 01:25:00,VALID,918.294,VALID,0,VALID,97.6084,VALID,0,VALID,19.0375,VALID,167,VALID,0.911133,
2000-05-03, 01:26:00,VALID,918.283,VALID,0,VALID,97.6936,VALID,0.0169808,VALID,19.0566,VALID,165,VALID,0.984592,
2000-05-03, 01:27:00,VALID,918.278,VALID,0,VALID,97.6948,VALID,0,VALID,19.1023,VALID,171,VALID,1.02302,
2000-05-03, 01:28:00,VALID,918.266,VALID,0,VALID,97.5308,VALID,0.0169808,VALID,19.1185,VALID,183,VALID,1.01542,
2000-05-03, 01:29:01,VALID,918.27,VALID,0,VALID,97.1964,VALID,0,VALID,19.1508,VALID,193,VALID,0.648438,
2000-05-03, 01:30:00,VALID,918.271,VALID,0,VALID,96.8823,VALID,0,VALID,19.1729,VALID,200,VALID,0.619243,
2000-05-03, 01:31:01,VALID,918.274,VALID,0,VALID,96.6407,VALID,0.0169808,VALID,19.1861,VALID,194,VALID,0.716016,
2000-05-03, 01:32:00,VALID,918.273,VALID,0,VALID,96.4296,VALID,0,VALID,19.1858,VALID,203,VALID,0.278372,
2000-05-03, 01:33:01,VALID,918.273,VALID,0,VALID,96.1269,VALID,0,VALID,19.1826,VALID,192,VALID,1.00329,
2000-05-03, 01:34:01,VALID,918.267,VALID,0,VALID,95.8345,VALID,0.0339617,VALID,19.2087,VALID,180,VALID,1.16838,
2000-05-03, 01:35:00,VALID,918.264,VALID,0,VALID,95.5967,VALID,0.0169808,VALID,19.228,VALID,175,VALID,0.756811,
2000-05-03, 01:36:01,VALID,918.249,VALID,0,VALID,95.5318,VALID,0,VALID,19.241,VALID,163,VALID,0.840794,
2000-05-03, 01:37:00,VALID,918.241,VALID,0,VALID,95.3042,VALID,0.0169808,VALID,19.2179,VALID,160,VALID,0.898026,
2000-05-03, 01:38:00,VALID,918.22,VALID,0,VALID,95.3665,VALID,0.0169808,VALID,19.1928,VALID,142,VALID,1.08203,
2000-05-03, 01:39:00,VALID,918.205,VALID,0,VALID,95.5751,VALID,0,VALID,19.1475,VALID,135,VALID,0.848524,
2000-05-03, 01:40:01,VALID,918.185,VALID,0,VALID,95.7442,VALID,0,VALID,19.1314,VALID,126,VALID,0.698057,
2000-05-03, 01:41:00,VALID,918.164,VALID,0,VALID,95.7226,VALID,0,VALID,19.0956,VALID,128,VALID,0.238898,
2000-05-03, 01:42:00,VALID,918.159,VALID,0,VALID,95.8345,VALID,0,VALID,19.0439,VALID,133,VALID,0.552902,
2000-05-03, 01:43:00,VALID,918.151,VALID,0,VALID,95.982,VALID,0,VALID,18.9987,VALID,129,VALID,0.0971284,
2000-05-03, 01:44:01,VALID,918.146,VALID,0,VALID,96.1079,VALID,0.0169808,VALID,18.9664,VALID,129,VALID,0,
2000-05-03, 01:45:00,VALID,918.138,VALID,0,VALID,96.2643,VALID,0,VALID,18.9406,VALID,129,VALID,0,
2000-05-03, 01:46:00,VALID,918.126,VALID,0,VALID,96.3953,VALID,0,VALID,18.9281,VALID,129,VALID,0,
2000-05-03, 01:47:00,VALID,918.121,VALID,0,VALID,96.4983,VALID,0,VALID,18.915,VALID,129,VALID,0,
2000-05-03, 01:48:00,VALID,918.116,VALID,0,VALID,96.5097,VALID,0,VALID,18.9117,VALID,129,VALID,0,
2000-05-03, 01:49:00,VALID,918.112,VALID,0,VALID,96.5033,VALID,0.0169808,VALID,18.8953,VALID,129,VALID,0,
2000-05-03, 01:50:00,VALID,918.109,VALID,0,VALID,96.4614,VALID,0,VALID,18.8792,VALID,129,VALID,0,
2000-05-03, 01:51:00,VALID,918.116,VALID,0,VALID,96.4868,VALID,0,VALID,18.8727,VALID,129,VALID,0,
2000-05-03, 01:52:00,VALID,918.119,VALID,0,VALID,96.6025,VALID,0,VALID,18.8732,VALID,137,VALID,0,
2000-05-03, 01:53:00,VALID,918.114,VALID,0,VALID,96.8009,VALID,0,VALID,18.8861,VALID,156,VALID,0,
2000-05-03, 01:54:01,VALID,918.114,VALID,0,VALID,96.8073,VALID,0,VALID,18.8831,VALID,167,VALID,0,
2000-05-03, 01:55:00,VALID,918.111,VALID,0,VALID,96.7195,VALID,-0.0169808,VALID,18.8727,VALID,186,VALID,0,
2000-05-03, 01:56:00,VALID,918.113,VALID,0,VALID,96.6661,VALID,-0.0849042,VALID,18.8637,VALID,183,VALID,0,
2000-05-03, 01:57:00,VALID,918.105,VALID,0,VALID,96.5567,VALID,-0.0339617,VALID,18.8379,VALID,167,VALID,0,
2000-05-03, 01:58:00,VALID,918.114,VALID,0,VALID,96.4766,VALID,0,VALID,18.8118,VALID,167,VALID,0,
2000-05-03, 01:59:00,VALID,918.108,VALID,0,VALID,96.5237,VALID,0,VALID,18.7857,VALID,167,VALID,0,
2000-05-03, 02:00:00,VALID,918.099,VALID,0,VALID,96.6865,VALID,-0.0339617,VALID,18.7761,VALID,167,VALID,0,
2000-05-03, 02:01:00,VALID,918.081,VALID,0,VALID,96.7208,VALID,0,VALID,18.7698,VALID,167,VALID,0,
2000-05-03, 02:02:00,VALID,918.066,VALID,0,VALID,96.6979,VALID,-0.0509425,VALID,18.7502,VALID,167,VALID,0,
2000-05-03, 02:03:01,VALID,918.067,VALID,0,VALID,96.7945,VALID,-0.0169808,VALID,18.7636,VALID,167,VALID,0,
2000-05-03, 02:04:00,VALID,918.063,VALID,0,VALID,96.9166,VALID,-0.0169808,VALID,18.7673,VALID,167,VALID,0,
2000-05-03, 02:05:01,VALID,918.078,VALID,0,VALID,97.0412,VALID,-0.0169808,VALID,18.7472,VALID,167,VALID,0,
2000-05-03, 02:06:00,VALID,918.078,VALID,0,VALID,97.0794,VALID,-0.0509425,VALID,18.7341,VALID,167,VALID,0,
2000-05-03, 02:07:01,VALID,918.078,VALID,0,VALID,97.1455,VALID,-0.0679233,VALID,18.7315,VALID,167,VALID,0,
2000-05-03, 02:08:00,VALID,918.087,VALID,0,VALID,97.0654,VALID,-0.0169808,VALID,18.7119,VALID,167,VALID,0,
2000-05-03, 02:09:01,VALID,918.079,VALID,0,VALID,96.9268,VALID,-0.0339617,VALID,18.693,VALID,167,VALID,0,
2000-05-03, 02:10:01,VALID,918.061,VALID,0,VALID,96.5644,VALID,-0.0169808,VALID,18.6923,VALID,166,VALID,0,
2000-05-03, 02:11:00,VALID,918.059,VALID,0,VALID,95.6094,VALID,-0.0339617,VALID,18.7509,VALID,165,VALID,0,
2000-05-03, 02:12:00,VALID,918.031,VALID,0,VALID,94.5641,VALID,-0.0339617,VALID,18.8866,VALID,165,VALID,0,
2000-05-03, 02:13:00,VALID,918.027,VALID,0,VALID,93.8978,VALID,-0.0169808,VALID,19.0123,VALID,166,VALID,0,
2000-05-03, 02:14:01,VALID,918.012,VALID,0,VALID,94.0161,VALID,-0.0339617,VALID,19.071,VALID,167,VALID,0,
2000-05-03, 02:15:01,VALID,917.994,VALID,0,VALID,94.3938,VALID,0,VALID,19.0153,VALID,167,VALID,0,
2000-05-03, 02:16:00,VALID,917.969,VALID,0,VALID,94.835,VALID,0,VALID,18.9378,VALID,167,VALID,0,
2000-05-03, 02:17:01,VALID,917.966,VALID,0,VALID,95.2445,VALID,-0.0509425,VALID,18.8873,VALID,172,VALID,0,
2000-05-03, 02:18:00,VALID,917.954,VALID,0,VALID,95.6018,VALID,-0.0169808,VALID,18.8116,VALID,174,VALID,0,
2000-05-03, 02:19:01,VALID,917.942,VALID,0,VALID,95.8307,VALID,-0.0169808,VALID,18.7507,VALID,174,VALID,0,
2000-05-03, 02:20:00,VALID,917.932,VALID,0,VALID,95.9426,VALID,-0.0169808,VALID,18.7288,VALID,174,VALID,0,
2000-05-03, 02:21:00,VALID,917.929,VALID,0,VALID,95.4924,VALID,0,VALID,18.6893,VALID,173,VALID,0,
2000-05-03, 02:22:00,VALID,917.914,VALID,0,VALID,94.6888,VALID,-0.0339617,VALID,18.7412,VALID,172,VALID,0,
2000-05-03, 02:23:01,VALID,917.915,VALID,0,VALID,93.3027,VALID,-0.0339617,VALID,18.8054,VALID,168,VALID,0,
2000-05-03, 02:24:00,VALID,917.896,VALID,0,VALID,93.3599,VALID,0,VALID,18.9159,VALID,167,VALID,0,
2000-05-03, 02:25:01,VALID,917.897,VALID,0,VALID,93.7414,VALID,-0.0339617,VALID,18.9614,VALID,169,VALID,0,
2000-05-03, 02:26:01,VALID,917.902,VALID,0,VALID,94.1153,VALID,-0.0169808,VALID,18.9417,VALID,191,VALID,0,
2000-05-03, 02:27:01,VALID,917.9,VALID,0,VALID,94.3403,VALID,-0.0509425,VALID,18.8928,VALID,193,VALID,0,
2000-05-03, 02:28:01,VALID,917.9,VALID,0,VALID,94.7104,VALID,-0.0339617,VALID,18.8675,VALID,194,VALID,0,
2000-05-03, 02:29:00,VALID,917.904,VALID,0,VALID,94.966,VALID,-0.0339617,VALID,18.8252,VALID,193,VALID,0,
2000-05-03, 02:30:01,VALID,917.917,VALID,0,VALID,95.275,VALID,0,VALID,18.7932,VALID,192,VALID,0,
2000-05-03, 02:31:01,VALID,917.907,VALID,0,VALID,95.4632,VALID,-0.0339617,VALID,18.7477,VALID,199,VALID,0,
2000-05-03, 02:32:01,VALID,917.896,VALID,0,VALID,95.6336,VALID,0,VALID,18.7156,VALID,202,VALID,0,
2000-05-03, 02:33:01,VALID,917.88,VALID,0,VALID,95.9311,VALID,-0.0169808,VALID,18.6863,VALID,207,VALID,0,
2000-05-03, 02:34:01,VALID,917.857,VALID,0,VALID,96.1028,VALID,-0.0509425,VALID,18.6729,VALID,217,VALID,0.525608,
2000-05-03, 02:35:01,VALID,917.837,VALID,0,VALID,96.1587,VALID,-0.0339617,VALID,18.654,VALID,216,VALID,0.455529,
2000-05-03, 02:36:01,VALID,917.829,VALID,0,VALID,96.3584,VALID,-0.0339617,VALID,18.6146,VALID,209,VALID,0.275127,
2000-05-03, 02:37:01,VALID,917.82,VALID,0,VALID,96.5326,VALID,0,VALID,18.6016,VALID,206,VALID,0.0597551,
2000-05-03, 02:38:01,VALID,917.814,VALID,0,VALID,96.628,VALID,-0.0169808,VALID,18.6019,VALID,203,VALID,0,
2000-05-03, 02:39:01,VALID,917.809,VALID,0,VALID,96.6013,VALID,-0.0169808,VALID,18.5922,VALID,192,VALID,0,
2000-05-03, 02:40:01,VALID,917.798,VALID,0,VALID,96.4067,VALID,-0.0509425,VALID,18.5569,VALID,179,VALID,0.271484,
2000-05-03, 02:41:01,VALID,917.802,VALID,0,VALID,96.5479,VALID,0,VALID,18.5274,VALID,169,VALID,0.548077,
2000-05-03, 02:42:01,VALID,917.787,VALID,0,VALID,96.6814,VALID,0,VALID,18.5251,VALID,159,VALID,0.264258,
2000-05-03, 02:43:01,VALID,917.779,VALID,0,VALID,96.736,VALID,-0.0169808,VALID,18.5253,VALID,158,VALID,0.209293,
2000-05-03, 02:44:01,VALID,917.783,VALID,0,VALID,96.8556,VALID,-0.0169808,VALID,18.5315,VALID,158,VALID,0.423725,
2000-05-03, 02:45:01,VALID,917.778,VALID,0,VALID,96.8327,VALID,-0.0679233,VALID,18.5248,VALID,158,VALID,0.20587,
2000-05-03, 02:46:01,VALID,917.769,VALID,0,VALID,96.8988,VALID,0,VALID,18.5253,VALID,158,VALID,0,
2000-05-03, 02:47:01,VALID,917.758,VALID,0,VALID,96.9789,VALID,0,VALID,18.5181,VALID,187,VALID,0,
2000-05-03, 02:48:00,VALID,917.751,VALID,0,VALID,97.0807,VALID,-0.0169808,VALID,18.5048,VALID,199,VALID,0,
2000-05-03, 02:49:00,VALID,917.741,VALID,0,VALID,97.2409,VALID,-0.0679233,VALID,18.5382,VALID,216,VALID,0,
2000-05-03, 02:50:00,VALID,917.726,VALID,0,VALID,97.3782,VALID,0,VALID,18.5539,VALID,233,VALID,0.65767,
2000-05-03, 02:51:00,VALID,917.714,VALID,0,VALID,97.4723,VALID,0,VALID,18.5733,VALID,226,VALID,0.900699,
2000-05-03, 02:52:00,VALID,917.711,VALID,0,VALID,97.6224,VALID,-0.0169808,VALID,18.5887,VALID,228,VALID,0.671289,
2000-05-03, 02:53:00,VALID,917.714,VALID,0,VALID,97.7165,VALID,0,VALID,18.6402,VALID,231,VALID,0.648849,
2000-05-03, 02:54:00,VALID,917.711,VALID,0,VALID,97.6885,VALID,0,VALID,18.6921,VALID,226,VALID,0.549753,
2000-05-03, 02:55:00,VALID,917.702,VALID,0,VALID,97.5779,VALID,-0.0339617,VALID,18.6983,VALID,226,VALID,0.493215,
2000-05-03, 02:56:00,VALID,917.695,VALID,0,VALID,97.5244,VALID,0,VALID,18.7343,VALID,229,VALID,0.31871,
2000-05-03, 02:57:00,VALID,917.695,VALID,0,VALID,97.5346,VALID,0,VALID,18.7666,VALID,238,VALID,0.00316723,
2000-05-03, 02:58:00,VALID,917.685,VALID,0,VALID,97.499,VALID,0,VALID,18.7823,VALID,239,VALID,0,
2000-05-03, 02:59:00,VALID,917.669,VALID,0,VALID,97.5003,VALID,-0.0169808,VALID,18.8047,VALID,239,VALID,0,
2000-05-03, 03:00:00,VALID,917.649,VALID,0,VALID,97.4583,VALID,0,VALID,18.8277,VALID,239,VALID,0,
2000-05-03, 03:01:00,VALID,917.634,VALID,0,VALID,97.3197,VALID,0,VALID,18.8273,VALID,227,VALID,0,
2000-05-03, 03:02:00,VALID,917.619,VALID,0,VALID,97.2015,VALID,0,VALID,18.8471,VALID,219,VALID,0,
2000-05-03, 03:03:00,VALID,917.598,VALID,0,VALID,97.0527,VALID,0.0169808,VALID,18.8303,VALID,213,VALID,0,
2000-05-03, 03:04:00,VALID,917.593,VALID,0,VALID,96.9052,VALID,-0.0169808,VALID,18.8143,VALID,206,VALID,0,
2000-05-03, 03:05:00,VALID,917.572,VALID,0,VALID,96.853,VALID,0.0169808,VALID,18.7883,VALID,205,VALID,0,
2000-05-03, 03:06:00,VALID,917.558,VALID,0,VALID,96.7564,VALID,0,VALID,18.7828,VALID,205,VALID,0,
2000-05-03, 03:07:00,VALID,917.551,VALID,0,VALID,96.731,VALID,0,VALID,18.747,VALID,205,VALID,0,
2000-05-03, 03:08:00,VALID,917.549,VALID,0,VALID,96.7945,VALID,0,VALID,18.7308,VALID,201,VALID,0,
2000-05-03, 03:09:00,VALID,917.554,VALID,0,VALID,96.8594,VALID,0,VALID,18.7177,VALID,198,VALID,0,
2000-05-03, 03:10:00,VALID,917.577,VALID,0,VALID,96.9408,VALID,0.0169808,VALID,18.7405,VALID,200,VALID,0,
2000-05-03, 03:11:00,VALID,917.579,VALID,0,VALID,96.9764,VALID,0,VALID,18.747,VALID,218,VALID,0,
2000-05-03, 03:12:00,VALID,917.572,VALID,0,VALID,96.9522,VALID,0,VALID,18.7433,VALID,218,VALID,0,
2000-05-03, 03:13:00,VALID,917.579,VALID,0,VALID,96.9306,VALID,-0.0169808,VALID,18.7375,VALID,209,VALID,0,
2000-05-03, 03:14:00,VALID,917.591,VALID,0,VALID,96.9395,VALID,-0.0169808,VALID,18.7274,VALID,205,VALID,0,
2000-05-03, 03:15:00,VALID,917.593,VALID,0,VALID,96.9548,VALID,0,VALID,18.7341,VALID,224,VALID,0.343117,
2000-05-03, 03:16:00,VALID,917.6,VALID,0,VALID,96.9077,VALID,0,VALID,18.7043,VALID,233,VALID,0,
2000-05-03, 03:17:00,VALID,917.602,VALID,0,VALID,96.8009,VALID,-0.0169808,VALID,18.7174,VALID,229,VALID,0,
2000-05-03, 03:18:00,VALID,917.586,VALID,0,VALID,96.7106,VALID,-0.0169808,VALID,18.7304,VALID,235,VALID,0.0457031,
2000-05-03, 03:19:00,VALID,917.58,VALID,0,VALID,96.8301,VALID,0.0169808,VALID,18.75,VALID,229,VALID,1.04914,
2000-05-03, 03:20:00,VALID,917.59,VALID,0,VALID,96.9128,VALID,0,VALID,18.7698,VALID,226,VALID,0.887821,
2000-05-03, 03:21:00,VALID,917.591,VALID,0,VALID,97.0133,VALID,0,VALID,18.7726,VALID,233,VALID,0.772204,
2000-05-03, 03:22:00,VALID,917.585,VALID,0,VALID,97.0552,VALID,-0.0169808,VALID,18.7599,VALID,234,VALID,0.659961,
2000-05-03, 03:23:00,VALID,917.601,VALID,0,VALID,97.1442,VALID,0,VALID,18.747,VALID,240,VALID,0.527148,
2000-05-03, 03:24:00,VALID,917.59,VALID,0,VALID,97.2599,VALID,0.0169808,VALID,18.7373,VALID,230,VALID,0.474359,
2000-05-03, 03:25:00,VALID,917.596,VALID,0,VALID,97.335,VALID,-0.0169808,VALID,18.7179,VALID,225,VALID,0.109375,
2000-05-03, 03:26:00,VALID,917.588,VALID,0,VALID,97.4532,VALID,-0.0339617,VALID,18.708,VALID,230,VALID,0.0244391,
2000-05-03, 03:27:00,VALID,917.588,VALID,0,VALID,97.5969,VALID,-0.0339617,VALID,18.7048,VALID,233,VALID,0,
2000-05-03, 03:28:00,VALID,917.581,VALID,0,VALID,97.6389,VALID,-0.0169808,VALID,18.7048,VALID,233,VALID,0,
2000-05-03, 03:29:00,VALID,917.576,VALID,0,VALID,97.6808,VALID,0.0169808,VALID,18.6983,VALID,233,VALID,0,
2000-05-03, 03:30:00,VALID,917.559,VALID,0,VALID,97.8055,VALID,-0.0339617,VALID,18.7249,VALID,233,VALID,0,
2000-05-03, 03:31:00,VALID,917.553,VALID,0,VALID,97.658,VALID,-0.0169808,VALID,18.7249,VALID,233,VALID,0,
2000-05-03, 03:32:00,VALID,917.542,VALID,0,VALID,97.5575,VALID,0,VALID,18.7015,VALID,233,VALID,0,
2000-05-03, 03:33:00,VALID,917.542,VALID,0,VALID,97.5308,VALID,-0.0169808,VALID,18.6948,VALID,233,VALID,0,
2000-05-03, 03:34:00,VALID,917.538,VALID,0,VALID,97.5244,VALID,0,VALID,18.7082,VALID,233,VALID,0,
2000-05-03, 03:35:00,VALID,917.541,VALID,0,VALID,97.6198,VALID,0,VALID,18.7276,VALID,233,VALID,0,
2000-05-03, 03:36:00,VALID,917.533,VALID,0,VALID,97.5867,VALID,0.0169808,VALID,18.7537,VALID,232,VALID,0,
2000-05-03, 03:37:00,VALID,917.514,VALID,0,VALID,97.4164,VALID,0.0339617,VALID,18.7497,VALID,231,VALID,0,
2000-05-03, 03:38:00,VALID,917.485,VALID,0,VALID,97.265,VALID,0.101885,VALID,18.7585,VALID,231,VALID,0,
2000-05-03, 03:39:00,VALID,917.453,VALID,0,VALID,97.2727,VALID,0.101885,VALID,18.758,VALID,231,VALID,0,